Location: Altleiningen
(49.5078°N, 8.0741°E)
Time: 04:22:05
(UTC+00:00)

CSL-04 Debris - Pass Details

Date: 03 March 2021
Orbit: 826 x 848 km, 98.9° (Epoch: 11 April)

Event Time Altitude Azimuth Distance (km) Brightness Sun altitude
Rises 18:23:40 0° 163° (SSE) 3,373 7.1 -12.1°
Reaches altitude 10° 18:26:00 10° 163° (SSE) 2,446 6.4 -12.5°
Maximum altitude 18:31:26 89° 248° (WSW) 849 4.2 -13.4°
Drops below altitude 10° 18:36:57 10° 345° (NNW) 2,477 6.9 -14.3°
Sets 18:39:20 0° 345° (NNW) 3,419 7.7 -14.6°
